Flag for Ireland Weather past 2 weeks in Waterford, Ireland

Now
52 °F

Passing clouds.


Feels Like: 49 °F
Forecast: 50 / 58 °F
Wind: 8 mph from Southwest

Location: Cork Airport

Current Time: Oct 24, 2014 at 1:46:05 PM

Latest Report: Oct 24, 2014 at 1:00 PM


Visibility: N/A

Pressure: 29.92 "Hg

Humidity: 88%

Dew point: 48 °F

Location of WaterfordLocation

Historic Weather in Waterford — Graph

°F

Waterford temperature yesterday

Maximum temperature yesterday: 59 °F (at 11:30 AM)
Minimum temperature yesterday: 52 °F (at 10:30 PM)
Average temperature yesterday: 56 °F

Past Weeks' High & Low Weather Summary

 TemperatureHumidityPressure
High61 °F (Oct 15, 1:00 PM)100% (Oct 10, 12:00 AM)30.36 "Hg (Oct 10, 12:00 AM)
Low41 °F (Oct 10, 6:00 AM)58% (Oct 21, 2:00 PM)29.12 "Hg (Oct 15, 6:00 AM)
Average52 °F90%29.74 "Hg
* Reported Oct 9 12:00 Noon — Oct 24 12:30 PM, Waterford, Weather by CustomWeather, © 2014

Note: Actual official high and low records may vary slightly from our data, if they occured in-between our weather recording intervals... More about our weather records

Advertising

Waterford weather history for previous 24 hours

 ConditionsComfort  
Time TempWeatherWind HumidityBarometerVisibility
12:30 PM
Oct 24
50 °FSprinkles. Broken clouds.9 mph88%29.92 "Hg5 mi
12:00 PM52 °FBroken clouds.9 mph82%29.92 "HgN/A
11:30 AM52 °FPartly sunny.10 mph88%29.92 "HgN/A
10:30 AM50 °FPartly sunny.8 mph94%29.92 "HgN/A
10:00 AM50 °FPassing clouds.7 mph100%29.92 "HgN/A
9:30 AM48 °FBroken clouds.7 mph100%29.92 "Hg4 mi
9:00 AM46 °FPassing clouds.6 mph100%29.92 "HgN/A
8:30 AM46 °FPassing clouds.6 mph100%29.92 "HgN/A
8:00 AM45 °FPassing clouds.6 mph100%29.89 "HgN/A
7:30 AM46 °FPassing clouds.5 mph93%29.89 "HgN/A
7:00 AM48 °FPassing clouds.5 mph94%29.89 "HgN/A
6:30 AM48 °FPassing clouds.7 mph94%29.92 "HgN/A
6:00 AM46 °FPassing clouds.5 mph93%29.89 "HgN/A
5:30 AM46 °FPassing clouds.5 mph100%29.89 "HgN/A
5:00 AM48 °FPassing clouds.6 mph94%29.92 "HgN/A
4:30 AM46 °FPassing clouds.7 mph100%29.92 "HgN/A
4:00 AM46 °FPassing clouds.7 mph100%29.89 "HgN/A
3:30 AM46 °FPassing clouds.5 mph100%29.92 "HgN/A
3:00 AM48 °FPassing clouds.5 mph94%29.92 "HgN/A
2:30 AM48 °FPassing clouds.5 mph94%29.92 "HgN/A
2:00 AM48 °FPassing clouds.5 mph100%29.92 "HgN/A
1:30 AM46 °FPassing clouds.5 mph100%29.92 "HgN/A
1:00 AM48 °FPassing clouds.6 mph100%29.92 "HgN/A
12:30 AM48 °FPassing clouds.7 mph100%29.92 "HgN/A
12:00 AM48 °FPassing clouds.8 mph100%29.92 "HgN/A
11:30 PM
Oct 23
52 °FPassing clouds.7 mph94%29.92 "HgN/A
11:00 PM52 °FPassing clouds.7 mph100%29.92 "HgN/A
10:30 PM52 °FPassing clouds.7 mph94%29.92 "HgN/A
10:00 PM55 °FPassing clouds.7 mph94%29.92 "HgN/A
9:30 PM55 °FPartly cloudy.7 mph94%29.92 "HgN/A
9:00 PM55 °FPassing clouds.9 mph94%29.92 "HgN/A
8:30 PM55 °FPassing clouds.13 mph94%29.92 "HgN/A
8:00 PM55 °FPassing clouds.15 mph94%29.92 "HgN/A
7:30 PM55 °FPartly cloudy.15 mph94%29.89 "HgN/A
7:00 PM55 °FBroken clouds.14 mph94%29.89 "HgN/A
6:30 PM55 °FPartly sunny.13 mph94%29.89 "HgN/A
6:00 PM55 °FPartly sunny.14 mph94%29.89 "HgN/A
5:30 PM57 °FPartly sunny.15 mph88%29.89 "HgN/A
5:00 PM57 °FBroken clouds.15 mph88%29.89 "HgN/A
4:30 PM57 °FPartly sunny.16 mph88%29.89 "HgN/A
4:00 PM59 °FScattered clouds.16 mph82%29.92 "HgN/A
3:30 PM57 °FBroken clouds.16 mph88%29.92 "HgN/A
3:00 PM59 °FBroken clouds.16 mph88%29.92 "HgN/A
2:30 PM59 °FScattered clouds.17 mph82%29.92 "HgN/A
2:00 PM59 °FBroken clouds.16 mph88%29.92 "HgN/A
1:30 PM59 °FBroken clouds.18 mph94%29.95 "HgN/A
1:00 PM57 °FBroken clouds.17 mph94%29.95 "HgN/A
Weather by CustomWeather, © 2014

See weather overviewHow to use our weather pages